Weather History for KSAR - December, 2012

Change the Weather History Date:

Friday, December 21, 2012

  Actual Average (KBLV) Record (KBLV)
Temperature  
Mean Temperature 32 °F -  
Max Temperature 39 °F 39 °F 64 °F (1949)
Min Temperature 26 °F 23 °F -6 °F (1989)
Degree Days  
Heating Degree Days 32    
Moisture  
Dew Point 12 °F    
Average Humidity 50    
Maximum Humidity 74    
Minimum Humidity 12    
Precipitation  
Precipitation 0.00 in - - ()
Sea Level Pressure  
Sea Level Pressure 30.18 in    
Wind  
Wind Speed 15 mph (WNW)    
Max Wind Speed 23 mph    
Max Gust Speed 34 mph    
Visibility 10 miles    
Events      
Averages and records for this station are not official NWS values.
T = Trace of Precipitation, MM = Missing Value Source: NWS Daily Summary

Daily Weather History Graph

Daily Weather History Graph

Search for Another Location

Airport or City:

Trip Planner

Search our weather history database for the weather conditions in past years. The results will help you decide how hot, cold, wet, or windy it might be!

Date:

Astronomy

Dec. 21, 2012 Rise Set
Actual Time 7:11 AM CST 4:42 PM CST
Civil Twilight 6:42 AM CST 5:12 PM CST
Nautical Twilight 6:09 AM CST 5:45 PM CST
Astronomical Twilight 5:36 AM CST 6:17 PM CST
Moon 12:26 PM CST (12/21) 1:02 AM CST (12/21)
Length of Visible Light 10h 29m
Length of Day
9h 30m
Waxing Gibbous, 65% of the Moon is Illuminated
Dec 21
Waxing Gibbous
Dec 28
Full
Jan 4
Last Quarter
Jan 11
New
Jan 18
First Quarter

Hourly Weather History & Observations

Time (CST) Temp. Windchill Dew Point Humidity Pressure Visibility Wind Dir Wind Speed Gust Speed Precip Events Conditions
12:15 AM 28.4 °F 14.4 °F 21.2 °F 74% 29.95 in 10.0 mi West 23.0 mph 32.2 mph N/A   Clear
12:35 AM 28.4 °F 16.2 °F 21.2 °F 74% 29.96 in 10.0 mi West 17.3 mph 32.2 mph N/A   Clear
12:55 AM 28.4 °F 15.8 °F 21.2 °F 74% 29.97 in 10.0 mi West 18.4 mph 29.9 mph N/A   Clear
1:15 AM 28.4 °F 15.4 °F 21.2 °F 74% 29.98 in 10.0 mi West 19.6 mph 27.6 mph N/A   Clear
1:35 AM 28.4 °F 15.1 °F 21.2 °F 74% 29.99 in 10.0 mi West 20.7 mph 31.1 mph N/A   Clear
1:55 AM 28.4 °F 15.1 °F 21.2 °F 74% 29.99 in 10.0 mi West 20.7 mph 27.6 mph N/A   Clear
2:15 AM 28.4 °F 15.4 °F 21.2 °F 74% 30.00 in 10.0 mi West 19.6 mph 34.5 mph N/A   Clear
2:35 AM 28.4 °F 15.4 °F 21.2 °F 74% 30.02 in 10.0 mi West 19.6 mph 27.6 mph N/A   Clear
2:55 AM 28.4 °F 15.4 °F 21.2 °F 74% 30.02 in 10.0 mi West 19.6 mph 26.5 mph N/A   Clear
3:15 AM 28.4 °F 17.0 °F 21.2 °F 74% 30.03 in 10.0 mi West 15.0 mph - N/A   Clear
3:35 AM 28.4 °F 16.6 °F 19.4 °F 69% 30.03 in 10.0 mi West 16.1 mph 21.9 mph N/A   Clear
3:55 AM 28.4 °F 16.6 °F 19.4 °F 69% 30.04 in 10.0 mi West 16.1 mph 24.2 mph N/A   Clear
4:15 AM 28.4 °F 16.6 °F 19.4 °F 69% 30.04 in 10.0 mi West 16.1 mph 21.9 mph N/A   Clear
4:35 AM 26.6 °F 12.7 °F 19.4 °F 74% 30.04 in 10.0 mi West 20.7 mph 29.9 mph N/A   Clear
4:55 AM 26.6 °F 13.8 °F 19.4 °F 74% 30.05 in 10.0 mi West 17.3 mph 24.2 mph N/A   Clear
5:15 AM 26.6 °F 13.8 °F 17.6 °F 69% 30.06 in 10.0 mi West 17.3 mph 25.3 mph N/A   Clear
5:35 AM 26.6 °F 13.1 °F 17.6 °F 69% 30.07 in 10.0 mi West 19.6 mph 31.1 mph N/A   Clear
5:55 AM 26.6 °F 13.8 °F 17.6 °F 69% 30.07 in 10.0 mi West 17.3 mph 27.6 mph N/A   Clear
6:15 AM 26.6 °F 14.7 °F 17.6 °F 69% 30.09 in 10.0 mi West 15.0 mph 25.3 mph N/A   Clear
6:35 AM 26.6 °F 16.2 °F 17.6 °F 69% 30.10 in 10.0 mi West 11.5 mph 23.0 mph N/A   Clear
6:55 AM 26.6 °F 14.7 °F 17.6 °F 69% 30.11 in 10.0 mi West 15.0 mph 23.0 mph N/A   Clear
7:15 AM 26.6 °F 14.3 °F 17.6 °F 69% 30.12 in 10.0 mi West 16.1 mph 23.0 mph N/A   Clear
7:35 AM 26.6 °F 15.7 °F 17.6 °F 69% 30.13 in 10.0 mi West 12.7 mph 24.2 mph N/A   Clear
7:55 AM 26.6 °F 13.8 °F 15.8 °F 64% 30.13 in 10.0 mi West 17.3 mph 24.2 mph N/A   Clear
8:15 AM 28.4 °F 17.0 °F 17.6 °F 64% 30.14 in 10.0 mi West 15.0 mph 25.3 mph N/A   Clear
8:35 AM 28.4 °F 17.0 °F 15.8 °F 59% 30.16 in 10.0 mi West 15.0 mph 21.9 mph N/A   Clear
8:55 AM 30.2 °F 18.5 °F 15.8 °F 55% 30.17 in 10.0 mi WNW 17.3 mph 27.6 mph N/A   Clear
9:15 AM 30.2 °F 17.8 °F 15.8 °F 55% 30.17 in 10.0 mi WNW 19.6 mph 26.5 mph N/A   Clear
9:35 AM 30.2 °F 19.8 °F 15.8 °F 55% 30.19 in 10.0 mi WNW 13.8 mph 21.9 mph N/A   Clear
9:55 AM 30.2 °F 18.1 °F 12.2 °F 47% 30.20 in 10.0 mi WNW 18.4 mph 24.2 mph N/A   Clear
10:15 AM 32.0 °F 21.6 °F 12.2 °F 44% 30.20 in 10.0 mi WNW 15.0 mph 23.0 mph N/A   Clear
10:35 AM 33.8 °F 24.8 °F 12.2 °F 41% 30.21 in 10.0 mi WNW 12.7 mph 23.0 mph N/A   Clear
10:55 AM 33.8 °F 23.2 °F 10.4 °F 38% 30.20 in 10.0 mi WNW 17.3 mph 23.0 mph N/A   Clear
11:15 AM 35.6 °F 27.1 °F 8.6 °F 33% 30.20 in 10.0 mi WNW 12.7 mph 19.6 mph N/A   Clear
11:35 AM 37.4 °F 28.9 °F 6.8 °F 28% 30.21 in 10.0 mi WNW 13.8 mph 21.9 mph N/A   Clear
11:55 AM 37.4 °F 28.5 °F 3.2 °F 24% 30.21 in 10.0 mi WNW 15.0 mph 25.3 mph N/A   Clear
12:15 PM 37.4 °F 28.5 °F 3.2 °F 24% 30.21 in 10.0 mi NW 15.0 mph 27.6 mph N/A   Clear
12:35 PM 37.4 °F 29.3 °F 3.2 °F 24% 30.21 in 10.0 mi WNW 12.7 mph 26.5 mph N/A   Clear
12:55 PM 37.4 °F 29.3 °F 1.4 °F 22% 30.21 in 10.0 mi WNW 12.7 mph 23.0 mph N/A   Clear
1:15 PM 37.4 °F 27.8 °F -2.2 °F 19% 30.20 in 10.0 mi NW 17.3 mph 25.3 mph N/A   Clear
1:35 PM 37.4 °F 26.9 °F -4.0 °F 17% 30.19 in 10.0 mi WNW 20.7 mph 28.8 mph N/A   Clear
1:55 PM 39.2 °F 29.6 °F -5.8 °F 15% 30.20 in 10.0 mi WNW 19.6 mph 26.5 mph N/A   Clear
2:15 PM 37.4 °F 28.5 °F -9.4 °F 13% 30.21 in 10.0 mi NW 15.0 mph 27.6 mph N/A   Clear
2:35 PM 37.4 °F 28.2 °F -11.2 °F 12% 30.21 in 10.0 mi WNW 16.1 mph 25.3 mph N/A   Clear
2:55 PM 37.4 °F 30.3 °F -5.8 °F 16% 30.22 in 10.0 mi WNW 10.4 mph 19.6 mph N/A   Clear
3:15 PM 37.4 °F 30.3 °F -9.4 °F 13% 30.23 in 10.0 mi NW 10.4 mph 23.0 mph N/A   Clear
3:35 PM 37.4 °F 28.5 °F -7.6 °F 15% 30.24 in 10.0 mi NW 15.0 mph 23.0 mph N/A   Clear
3:55 PM 37.4 °F 30.8 °F -2.2 °F 19% 30.24 in 10.0 mi NW 9.2 mph - N/A   Clear
4:15 PM 35.6 °F 29.2 °F -0.4 °F 22% 30.25 in 10.0 mi WNW 8.1 mph - N/A   Clear
4:35 PM 35.6 °F 29.2 °F -0.4 °F 22% 30.26 in 10.0 mi WNW 8.1 mph - N/A   Clear
4:55 PM 33.8 °F 28.6 °F 3.2 °F 28% 30.27 in 10.0 mi WNW 5.8 mph - N/A   Clear
5:15 PM 33.8 °F 27.7 °F 6.8 °F 32% 30.27 in 10.0 mi WNW 6.9 mph - N/A   Clear
5:35 PM 32.0 °F 24.8 °F 8.6 °F 38% 30.28 in 10.0 mi WNW 8.1 mph - N/A   Clear
5:55 PM 32.0 °F 25.6 °F 8.6 °F 38% 30.28 in 10.0 mi WNW 6.9 mph - N/A   Clear
6:15 PM 32.0 °F 26.4 °F 10.4 °F 41% 30.28 in 10.0 mi WNW 5.8 mph - N/A   Clear
6:35 PM 30.2 °F 25.4 °F 12.2 °F 47% 30.28 in 10.0 mi WNW 4.6 mph - N/A   Clear
6:55 PM 32.0 °F 24.8 °F 12.2 °F 44% 30.29 in 10.0 mi WNW 8.1 mph - N/A   Clear
7:15 PM 32.0 °F 25.6 °F 12.2 °F 44% 30.29 in 10.0 mi WNW 6.9 mph - N/A   Clear
7:35 PM 30.2 °F 25.4 °F 12.2 °F 47% 30.29 in 10.0 mi West 4.6 mph - N/A   Clear
7:55 PM 30.2 °F 24.3 °F 12.2 °F 47% 30.30 in 10.0 mi WNW 5.8 mph - N/A   Clear
8:15 PM 30.2 °F 23.4 °F 12.2 °F 47% 30.30 in 10.0 mi WNW 6.9 mph - N/A   Clear
8:35 PM 30.2 °F 23.4 °F 12.2 °F 47% 30.30 in 10.0 mi WNW 6.9 mph - N/A   Clear
8:55 PM 30.2 °F 24.3 °F 14.0 °F 51% 30.30 in 10.0 mi West 5.8 mph - N/A   Clear
9:15 PM 30.2 °F 24.3 °F 12.2 °F 47% 30.30 in 10.0 mi WNW 5.8 mph - N/A   Clear
9:35 PM 30.2 °F 24.3 °F 12.2 °F 47% 30.30 in 10.0 mi West 5.8 mph - N/A   Clear
9:55 PM 28.4 °F 24.6 °F 15.8 °F 59% 30.30 in 10.0 mi West 3.5 mph - N/A   Clear
10:15 PM 28.4 °F 23.3 °F 15.8 °F 59% 30.30 in 10.0 mi WNW 4.6 mph - N/A   Clear
10:35 PM 28.4 °F 23.3 °F 15.8 °F 59% 30.29 in 10.0 mi WNW 4.6 mph - N/A   Clear
10:55 PM 28.4 °F 22.2 °F 14.0 °F 55% 30.29 in 10.0 mi WNW 5.8 mph - N/A   Clear
11:15 PM 28.4 °F 23.3 °F 15.8 °F 59% 30.29 in 10.0 mi West 4.6 mph - N/A   Clear
11:35 PM 26.6 °F 21.2 °F 15.8 °F 64% 30.29 in 10.0 mi West 4.6 mph - N/A   Clear
11:55 PM 26.6 °F 22.6 °F 15.8 °F 64% 30.29 in 10.0 mi WNW 3.5 mph - N/A   Clear